Terminal Aerodrome Forecast
Issued by NWS

Home | Current Version | Previous Version | Graphics & Text | Print | Product List | Glossary On
Versions: 1 2 3 4 5 6 7 8 9 10 11 12 13 14 15 16 17 18 19 20 21 22 23 24 25 26 27 28 29
000
FTUS43 KABR 022018 AAA
TAFMBG
TAF AMD
KMBG 022018Z 0220/0318 20007KT P6SM SKC
     FM030100 34007KT P6SM BKN250
     FM030800 36011KT P6SM BKN015
     FM031500 35011KT P6SM SCT015=

USA.gov is the U.S. government's official web portal to all federal, state and local government web resources and services.